Weather Roundup
Issued by NWS

Home | Current Version | Previous Version | Text Only | Print | Product List | Glossary On
Versions: 1 2 3 4 5 6 7 8 9 10 11 12 13 14 15 16 17 18 19 20 21 22 23 24 25 26 27 28 29 30 31 32 33 34 35 36 37 38 39 40 41 42 43 44 45 46 47 48 49 50
000
NZUS93 KARX 211710
HRRWXR

CURRENT HOURLY OBSERVATIONS ACROSS
MUCH OF THE UPPER MISSISSIPPI VALLEY
NATIONAL WEATHER SERVICE LA CROSSE WI
1200 PM CDT FRI JUL 21 2017


...SOUTHEAST MINNESOTA...


CITY           SKY/WX    TMP DP  RH WIND       PRES   REMARKS
ROCHESTER      LGT RAIN  68  68 100 S12       29.96F
ROCHESTER/MAYO CLOUDY    68  69 100 SE14G21   29.95F
WINONA         LGT RAIN  72  70  94 W5        29.98S
AUSTIN         DRIZZLE   70  66  88 SE14      29.95S
ALBERT LEA     CLOUDY    70  68  94 SE15G22   29.92S
DODGE CENTER   LGT RAIN  70  66  88 SE13G20   29.94F
PRESTON        LGT RAIN  67  65  94 SW7       30.00F
OWATONNA       RAIN      72  68  88 SE13G18   29.92R
FARIBAULT      LGT RAIN  72  70  94 SE9       29.91R
$$

...ELSEWHERE IN MINNESOTA...


CITY           SKY/WX    TMP DP  RH WIND       PRES   REMARKS
MINNEAPOLIS    CLOUDY    74  67  78 S13       29.88F
INTNL FALLS    MOSUNNY   71  60  68 E7        29.92F
DULUTH         CLOUDY    72  64  76 E10       29.95S
RED WING       LGT RAIN  73  70  88 SE9       29.91F
REDWOOD FALLS  CLOUDY    77  71  82 SE9       29.84R
MANKATO        LGT RAIN  73  72  94 SE15      29.86F
WORTHINGTON    CLOUDY    74  71  91 E9        29.83F
FAIRMONT       RAIN      73  71  93 SE21G26   29.85F FOG
$$

...SOUTHWEST WISCONSIN...


CITY           SKY/WX    TMP DP  RH WIND       PRES   REMARKS
LA CROSSE      RAIN      73  71  93 S7        29.98R FOG
PRAIRIE DU CHI HVY RAIN  71  69  93 CALM      29.99S
BOSCOBEL       LGT RAIN  72  70  93 CALM      30.00R FOG
LONE ROCK      LGT RAIN  73  72  96 SW3       29.98S FOG
PLATTEVILLE    CLOUDY    75  74  96 E6        29.99F
FORT MC COY    LGT RAIN  68  68  98 S5        29.99F
CAMP DOUGLAS   LGT RAIN  73  72  94 SW6       29.99R
MAUSTON-NEW LI LGT RAIN  73  70  91 S5        29.98S
VIROQUA        CLOUDY    69  69 100 SW5       30.02F
WIS DELLS      LGT RAIN  74  69  84 CALM      29.99F
$$

...ELSEWHERE IN WISCONSIN...


CITY           SKY/WX    TMP DP  RH WIND       PRES   REMARKS
MILWAUKEE      CLOUDY    83  73  72 S7        30.00F
MADISON        CLOUDY    78  70  76 SE6       29.97F
GREEN BAY      PTSUNNY   82  69  64 S5        29.97F
EAU CLAIRE     CLOUDY    75  68  78 S10       29.95S
BLACK RVR FLS  LGT RAIN  73  73 100 CALM      29.98S
MEDFORD        CLOUDY    77  65  65 S14       30.00S
WAUSAU         CLOUDY    79  64  60 S10       29.98F
WIS RAPIDS     PTSUNNY   77  68  73 SW6       30.00F
MARSHFIELD     CLOUDY    76  65  68 S7        30.00S
RICE LAKE      CLOUDY    78  67  68 S12G18    29.98S
$$

...NORTHEAST IOWA...


CITY           SKY/WX    TMP DP  RH WIND       PRES   REMARKS
WATERLOO       CLOUDY    71  68  90 E13       29.95F
DUBUQUE        CLOUDY    75  71  87 SE8       29.97F
DECORAH        LGT RAIN  68  68 100 CALM      30.00F
MASON CITY     CLOUDY    72  68  87 E21G29    29.95F
CHARLES CITY   CLOUDY    70  70 100 E12       29.98F
OELWEIN        LGT RAIN  70  68  94 NE9G16    29.99F
$$

...ELSEWHERE IN IOWA...


CITY           SKY/WX    TMP DP  RH WIND       PRES   REMARKS
DES MOINES     MOSUNNY   92  75  57 S7        29.86F HX 103
IOWA CITY      CLOUDY    86  76  71 S13       29.93F HX  96
FORT DODGE     CLOUDY    79  73  83 SE17      29.91S
MARSHALLTOWN   CLOUDY    77  72  84 NE16G23   29.93S
CEDAR RAPIDS   MOSUNNY   84  78  82 S9        29.93F HX  95
$$

...NORTHERN ILLINOIS...


CITY           SKY/WX    TMP DP  RH WIND       PRES   REMARKS
CHICAGO-OHARE  CLOUDY    86  71  60 SE5       29.99F HX  91
CHICAGO-MIDWAY CLOUDY    85  71  63 S8        30.00S HX  90
MOLINE         CLOUDY    84  72  67 SE8       29.95F
ROCKFORD       CLOUDY    82  73  74 S8        30.00S
PEORIA         SUNNY     89  75  63 SE6G17    29.98F HX  99
$$

NOTE: "FAIR" INDICATES FEW OR NO CLOUDS BELOW 12,000 FEET WITH NO
SIGNIFICANT WEATHER AND/OR OBSTRUCTIONS TO VISIBILITY. WIND
SPEEDS ARE IN MILES-PER-HOUR.




USA.gov is the U.S. government's official web portal to all federal, state and local government web resources and services.